Regional Weather Roundup
Issued by NWS Newport/Morehead, NC

Current Version | Previous Version | Graphics & Text | Print | Product List | Glossary Off
Versions: 1 2 3 4 5 6 7 8 9 10 11 12 13 14 15 16 17 18 19 20 21 22 23 24 25 26 27 28 29 30 31 32 33 34 35 36 37 38 39 40 41 42 43 44 45 46 47 48 49 50

000
ASUS42 KMHX 211010
RWRMHX
WEATHER ROUNDUP FOR EASTERN NORTH CAROLINA
NATIONAL WEATHER SERVICE NEWPORT/MOREHEAD CITY NC
500 AM EST SUN DEC 21 2014

NOTE: "FAIR" INDICATES FEW OR NO CLOUDS BELOW 12,000 FEET
WITH NO SIGNIFICANT WEATHER AND/OR OBSTRUCTIONS TO VISIBILITY

NCZ015>017-031-032-045>047-102-103-211100-
NORTH COAST

CITY           SKY/WX    TMP DP  RH WIND       PRES   REMARKS
EDENTON          N/A     31  29  90 CALM      30.28S
ELIZABETH CITY CLEAR     38  30  73 N7        30.28F
KITTY HAWK     SUNNY     40  34  77 N6        30.25S
MANTEO         CLEAR     38  34  82 N6        30.26F

$$

NCZ045>047-081-094-103-104-211100-
CENTRAL COAST

CITY           SKY/WX    TMP DP  RH WIND       PRES   REMARKS
FRISCO         CLEAR     43  37  79 NE10G18   30.24S
SWANQUARTER      N/A     36 N/A N/A N6        30.21S

$$

NCZ095-097-098-100-101-211100-
SOUTHERN COAST

CITY           SKY/WX    TMP DP  RH WIND       PRES   REMARKS
BEAUFORT       PTCLDY    40  37  89 N8        30.24S
CEDAR ISLAND     N/A     43 N/A N/A VRB15     30.27S
JACKSONVILLE   MOCLDY    36  33  89 N5        30.25R
PINEY ISLAND   SUNNY     43  36  76 N10       30.24F
WILMINGTON     CLOUDY    38  35  89 NE7       30.24R


$$

NCZ011>013-027>030-043-044-078>080-089-090>093-098-211100-
COASTAL PLAIN

CITY           SKY/WX    TMP DP  RH WIND       PRES   REMARKS
AHOSKIE        CLOUDY    30  28  93 CALM      30.29S
CLINTON        PTCLDY    36  35  97 NE5       30.27F
ELIZABETHTOWN  CLOUDY    36  36 100 N3        30.25S FOG
GOLDSBORO      CLEAR     34  33  98 N1        30.25S
GREENVILLE     CLEAR     32  32 100 CALM      30.28S
HAVELOCK       MOCLDY    38  33  82 NE10      30.25F
KENANSVILLE    CLOUDY    33  33 100 CALM      30.28R FOG
KINSTON        CLEAR     32  32  98 N5        30.27S
NEW BERN       CLEAR     36  31  82 NE6       30.27S
RICHLANDS      PTCLDY    34  30  86 N5        30.26S
ROCKY MOUNT    MOCLDY    32  30  92 CALM      30.28S
WASHINGTON     CLEAR     31  30  94 N3        30.28R
WHITEVILLE     CLOUDY    39  35  84 NE3       30.23S

$$

AMZ130-135-150-152-154-156-158-170-250-252-270-ANZ085-086-088-633-658-670-211100-
MARINE OBSERVATIONS

STATION/POSITION TIME  TEMP    WIND        PRES    WAVE   SWELL
                       AIR SEA DIR/SP/G            HT/PER HT/PER
                 (UTC) (F)     (DEG/KT/KT) (MB)    (FT/S) (FT/S)
CHESAPEAKE LIGHT 0900   39     360/ 11/ 12 1026.1
64 E VA BEACH    1000   43 54  350/ 12/ 16 1024.0    2/ 3   2/10
DUCK             1000   41 46   10/ 11/ 14 1023.7
2 E DUCK         1000      46                N/A     2/ 5
10 NE DUCK       0900      51                N/A     2/ 3
OREGON INLET     1000   42 49  360/  8/ 12 1024.4
13E OREGON INLT  1000      52                N/A     3/ 4
HATTERAS CG      1000   45 49   20/ 15/ 18 1024.0
DIAMOND BUOY     1000   49                 1023.1    3/ 4
17 S OCRACOKE    NOT AVBL
CAPE LOOKOUT     0900   42      20/ 11/ 13 1023.6
BEAUFORT LAB     1000   40 51   20/  7/ 10 1022.6
30 SE NEW RIVER  1000   50 61   40/ 21/ 25 1022.3    4/ 5   2/10
5 SE WRIGHTSVLE  NOT AVBL
225 S CAPE HAT   0937   67 71   80/ 19/ 21 1019.4    6/ 6   2/11
41 SE CHARLESTON 1000   61 70   30/ 19/ 23 1019.4    6/ 8

$$


USA.gov is the U.S. government's official web portal to all federal, state and local government web resources and services.